GW0552 Weather Reports


Display with metric or nautical units.
time (UTC)temp
F
wind
direction
speed
MPH
gust
MPH
rain 1hr
in
rain 24hr
in
rain mn
in
humidity
%
barometer
mb
20260902184939 94 103 2.0 3.0 0.00 0.00 0.00 59 1014.0
20260902184434 95 69 1.0 2.0 0.00 0.00 0.00 58 1014.2
20260902183929 95 69 1.0 1.0 0.00 0.00 0.00 57 1014.2
20260902183426 94 126 5.0 5.0 0.00 0.00 0.00 56 1014.3
20260902182921 94 88 3.0 3.0 0.00 0.00 0.00 63 1014.5
20260902182417 94 141 4.0 5.0 0.00 0.00 0.00 61 1014.5
20260902181914 94 79 0.0 0.0 0.00 0.00 0.00 60 1014.3
20260902181409 93 39 1.0 1.0 0.00 0.00 0.00 60 1014.3
20260902180903 93 82 0.0 0.0 0.00 0.00 0.00 61 1014.4
20260902180358 93 63 0.0 1.0 0.00 0.00 0.00 61 1014.5
20260902175854 93 65 0.0 0.0 0.00 0.00 0.00 60 1014.5
20260902175349 94 102 1.0 2.0 0.00 0.00 0.00 64 1014.5
20260902174844 92 61 0.0 0.0 0.00 0.00 0.00 70 1014.6
20260902174341 93 53 5.0 6.0 0.00 0.00 0.00 59 1014.7
20260902173831 95 69 0.0 0.0 0.00 0.00 0.00 58 1014.9
20260902173331 94 59 0.0 1.0 0.00 0.00 0.00 63 1015.1
20260902172831 95 70 0.0 1.0 0.00 0.00 0.00 58 1015.0
20260902172325 94 15 2.0 2.0 0.00 0.00 0.00 58 1015.3
20260902171820 93 30 0.0 0.0 0.00 0.00 0.00 60 1015.3
20260902171315 93 53 0.0 0.0 0.00 0.00 0.00 60 1015.2
20260902170806 93 338 2.0 2.0 0.00 0.00 0.00 61 1015.5
20260902170300 93 68 0.0 1.0 0.00 0.00 0.00 61 1015.5
20260902165756 93 53 0.0 0.0 0.00 0.00 0.00 62 1015.7
20260902165250 93 19 0.0 0.0 0.00 0.00 0.00 60 1015.7
20260902164744 93 36 0.0 0.0 0.00 0.00 0.00 63 1015.8
20260902164238 93 10 0.0 0.0 0.00 0.00 0.00 63 1015.9
20260902163734 92 61 1.0 2.0 0.00 0.00 0.00 64 1016.0
20260902163233 92 104 3.0 3.0 0.00 0.00 0.00 66 1016.1
20260902162732 91 50 1.0 1.0 0.00 0.00 0.00 65 1016.1
20260902162227 92 54 0.0 1.0 0.00 0.00 0.00 66 1016.2
20260902161722 92 92 0.0 1.0 0.00 0.00 0.00 67 1016.1
20260902161217 91 56 0.0 0.0 0.00 0.00 0.00 70 1016.4
20260902160714 91 80 2.0 2.0 0.00 0.00 0.00 66 1016.2
20260902160208 91 66 3.0 5.0 0.00 0.00 0.00 65 1016.2
20260902155706 91 28 0.0 0.0 0.00 0.00 0.00 67 1016.2
20260902155205 91 49 1.0 1.0 0.00 0.00 0.00 68 1016.3
20260902154701 90 80 1.0 2.0 0.00 0.00 0.00 71 1016.3
20260902154200 90 43 0.0 0.0 0.00 0.00 0.00 68 1016.4
20260902153655 89 73 2.0 2.0 0.00 0.00 0.00 70 1016.4
20260902153150 88 66 0.0 0.0 0.00 0.00 0.00 71 1016.4
20260902152646 88 34 0.0 0.0 0.00 0.00 0.00 72 1016.3
20260902152141 88 271 2.0 3.0 0.00 0.00 0.00 73 1016.3
20260902151636 88 77 0.0 0.0 0.00 0.00 0.00 74 1016.2
20260902151137 88 359 2.0 3.0 0.00 0.00 0.00 74 1016.3
20260902150632 88 49 0.0 0.0 0.00 0.00 0.00 78 1016.4
20260902150127 87 66 0.0 0.0 0.00 0.00 0.00 79 1016.4
20260902145622 86 47 0.0 0.0 0.00 0.00 0.00 82 1016.2
20260902145121 86 93 0.0 0.0 0.00 0.00 0.00 82 1016.2
20260902144618 85 81 0.0 0.0 0.00 0.00 0.00 80 1016.2
20260902144118 85 59 1.0 2.0 0.00 0.00 0.00 81 1016.0
20260902143613 84 63 0.0 0.0 0.00 0.00 0.00 88 1016.1
20260902143109 84 34 0.0 0.0 0.00 0.00 0.00 90 1016.1
20260902142605 83 38 0.0 0.0 0.00 0.00 0.00 90 1016.3
20260902142100 82 37 0.0 1.0 0.00 0.00 0.00 89 1016.1
20260902141600 82 53 0.0 0.0 0.00 0.00 0.00 89 1016.1
20260902141055 82 39 0.0 0.0 0.00 0.00 0.00 88 1016.1
20260902140549 81 127 4.0 8.0 0.00 0.00 0.00 88 1016.1
20260902140046 81 117 2.0 2.0 0.00 0.00 0.00 87 1016.0
20260902135545 80 126 1.0 1.0 0.00 0.00 0.00 90 1016.0
20260902135045 80 120 1.0 1.0 0.00 0.00 0.00 91 1016.0
20260902134541 79 120 0.0 0.0 0.00 0.00 0.00 94 1015.8
20260902134041 78 110 0.0 0.0 0.00 0.00 0.00 96 1015.9
20260902133536 77 114 0.0 0.0 0.00 0.00 0.00 98 1015.9
20260902133036 77 114 0.0 0.0 0.00 0.00 0.00 99 1016.1
20260902132531 76 113 0.0 0.0 0.00 0.00 0.00 99 1015.9
20260902132026 75 110 0.0 0.0 0.00 0.00 0.00 99 1016.0
20260902131522 75 114 0.0 0.0 0.00 0.00 0.00 99 1015.9
20260902130918 73 117 0.0 0.0 0.00 0.00 0.00 99 1016.0
20260902130414 73 117 0.0 0.0 0.00 0.00 0.00 99 1016.0
20260902125908 72 116 0.0 0.0 0.00 0.00 0.00 99 1015.9
20260902125405 72 117 0.0 0.0 0.00 0.00 0.00 99 1015.8
20260902124900 72 116 0.0 0.0 0.00 0.00 0.00 99 1015.9
20260902124356 71 118 0.0 0.0 0.00 0.00 0.00 99 1016.0
20260902123851 71 119 0.0 0.0 0.00 0.00 0.00 99 1016.0
20260902123348 70 121 0.0 0.0 0.00 0.00 0.00 99 1015.8
20260902122846 70 120 0.0 0.0 0.00 0.00 0.00 99 1015.9
20260902122342 70 120 0.0 0.0 0.00 0.00 0.00 99 1015.8
20260902121842 69 121 0.0 0.0 0.00 0.00 0.00 99 1016.0
20260902121337 69 121 0.0 0.0 0.00 0.00 0.00 99 1015.9
20260902120832 69 121 0.0 0.0 0.00 0.00 0.00 99 1016.0
20260902120328 69 121 0.0 0.0 0.00 0.00 0.00 99 1015.8
20260902115823 69 121 0.0 0.0 0.00 0.00 0.00 99 1016.0
20260902115319 69 121 0.0 0.0 0.00 0.00 0.00 99 1015.9
20260902114710 68 120 0.0 0.0 0.00 0.00 0.00 99 1015.7
20260902114206 68 120 0.0 0.0 0.00 0.00 0.00 99 1015.7
20260902113700 68 121 0.0 0.0 0.00 0.00 0.00 99 1015.7
20260902113155 68 120 0.0 0.0 0.00 0.00 0.00 99 1015.5
20260902112655 68 120 0.0 0.0 0.00 0.00 0.00 99 1015.5
20260902112153 68 121 0.0 0.0 0.00 0.00 0.00 99 1015.3
20260902111648 68 121 0.0 0.0 0.00 0.00 0.00 99 1015.3
20260902111143 68 123 0.0 0.0 0.00 0.00 0.00 99 1015.3
20260902110639 68 121 0.0 0.0 0.00 0.00 0.00 99 1015.1
20260902110135 68 122 0.0 0.0 0.00 0.00 0.00 99 1015.1
20260902105634 68 122 0.0 0.0 0.00 0.00 0.00 99 1015.2
20260902105130 68 121 0.0 0.0 0.00 0.00 0.00 99 1015.0
20260902104625 68 121 0.0 0.0 0.00 0.00 0.00 99 1015.3
20260902104120 69 120 0.0 0.0 0.00 0.00 0.00 99 1015.1
20260902103619 68 121 0.0 0.0 0.00 0.00 0.00 99 1015.3
20260902103115 68 121 0.0 0.0 0.00 0.00 0.00 99 1015.3
20260902102611 68 121 0.0 0.0 0.00 0.00 0.00 99 1015.2
20260902102108 68 122 0.0 0.0 0.00 0.00 0.00 99 1015.3
20260902101603 69 121 0.0 0.0 0.00 0.00 0.00 99 1015.3
20260902101102 68 121 0.0 0.0 0.00 0.00 0.00 99 1014.9
20260902100551 69 121 0.0 0.0 0.00 0.00 0.00 99 1015.1
20260902100046 69 122 0.0 0.0 0.00 0.00 0.00 99 1014.9
20260902095546 69 124 0.0 0.0 0.00 0.00 0.00 99 1015.1
20260902095045 69 122 0.0 0.0 0.00 0.00 0.00 99 1015.0
20260902094541 69 122 0.0 0.0 0.00 0.00 0.00 99 1015.0
20260902094036 69 123 0.0 0.0 0.00 0.00 0.00 99 1015.1
20260902093531 69 122 0.0 0.0 0.00 0.00 0.00 99 1015.0
20260902093031 69 122 0.0 0.0 0.00 0.00 0.00 99 1014.8
20260902092526 69 121 0.0 0.0 0.00 0.00 0.00 99 1015.0
20260902092021 69 122 0.0 0.0 0.00 0.00 0.00 99 1014.9
20260902091516 69 121 0.0 0.0 0.00 0.00 0.00 99 1015.1
20260902091012 69 121 0.0 0.0 0.00 0.00 0.00 99 1015.0
20260902090508 69 121 0.0 0.0 0.00 0.00 0.00 99 1015.0
20260902090006 69 121 0.0 0.0 0.00 0.00 0.00 99 1015.1
20260902085501 69 119 0.0 0.0 0.00 0.00 0.00 99 1015.1
20260902084956 69 121 0.0 0.0 0.00 0.00 0.00 99 1014.7
20260902084453 70 122 0.0 0.0 0.00 0.00 0.00 99 1014.6
20260902083948 70 121 0.0 0.0 0.00 0.00 0.00 99 1014.9
20260902083448 70 119 0.0 0.0 0.00 0.00 0.00 99 1014.7
20260902082943 70 122 0.0 0.0 0.00 0.00 0.00 99 1014.6
20260902082438 70 121 0.0 0.0 0.00 0.00 0.00 99 1014.6
20260902081935 70 124 0.0 0.0 0.00 0.00 0.00 99 1014.6
20260902081431 70 136 0.0 0.0 0.00 0.00 0.00 99 1014.6
20260902080926 70 123 0.0 0.0 0.00 0.00 0.00 99 1014.6
20260902080422 70 122 0.0 0.0 0.00 0.00 0.00 99 1014.8
20260902075921 70 121 0.0 0.0 0.00 0.00 0.00 99 1014.4
20260902075418 70 121 0.0 0.0 0.00 0.00 0.00 99 1014.6
20260902074913 70 121 0.0 0.0 0.00 0.00 0.00 99 1014.6
20260902074409 70 122 0.0 0.0 0.00 0.00 0.00 99 1014.6
20260902073903 70 121 0.0 0.0 0.00 0.00 0.00 99 1014.7
20260902073400 70 119 0.0 0.0 0.00 0.00 0.00 99 1014.5
20260902072855 70 121 0.0 0.0 0.00 0.00 0.00 99 1014.6
20260902072351 70 121 0.0 0.0 0.00 0.00 0.00 99 1014.5
20260902071847 70 121 0.0 0.0 0.00 0.00 0.00 99 1014.5
20260902071347 70 121 0.0 0.0 0.00 0.00 0.00 99 1014.4
20260902070843 71 121 0.0 0.0 0.00 0.00 0.00 99 1014.5
20260902070338 71 128 0.0 0.0 0.00 0.00 0.00 99 1014.6
20260902065836 71 122 0.0 0.0 0.00 0.00 0.00 99 1014.5
20260902065332 71 121 0.0 0.0 0.00 0.00 0.00 99 1014.4
20260902064827 71 120 0.0 0.0 0.00 0.00 0.00 99 1014.3
20260902064324 71 125 0.0 0.0 0.00 0.00 0.00 99 1014.3
20260902063819 71 123 0.0 0.0 0.00 0.00 0.00 99 1014.2
20260902063319 71 121 0.0 0.0 0.00 0.00 0.00 99 1014.4
20260902062818 71 121 0.0 0.0 0.00 0.00 0.00 99 1014.4
20260902062249 71 122 0.0 0.0 0.00 0.00 0.00 99 1014.4
20260902061748 71 122 0.0 0.0 0.00 0.00 0.00 99 1014.4
20260902061238 71 122 0.0 0.0 0.00 0.00 0.00 99 1014.4
20260902060735 71 122 0.0 0.0 0.00 0.00 0.00 99 1014.4
20260902060231 71 122 0.0 0.0 0.00 0.00 0.00 99 1014.6
20260902055726 71 122 0.0 0.0 0.00 0.00 0.00 99 1014.4
20260902055222 72 120 0.0 0.0 0.00 0.00 0.00 99 1014.3
20260902054717 72 120 0.0 0.0 0.00 0.00 0.00 99 1014.3
20260902054213 72 120 0.0 0.0 0.00 0.00 0.00 99 1014.2
20260902053708 72 120 0.0 0.0 0.00 0.00 0.00 99 1014.2
20260902053207 72 121 0.0 0.0 0.00 0.00 0.00 99 1014.2
20260902052707 72 128 0.0 0.0 0.00 0.00 0.00 99 1014.3
20260902052202 72 128 0.0 0.0 0.00 0.00 0.00 99 1014.1
20260902051701 72 124 0.0 0.0 0.00 0.00 0.00 99 1014.2
20260902051157 72 126 0.0 0.0 0.00 0.00 0.00 99 1014.3
20260902050657 72 127 1.0 1.0 0.00 0.00 0.00 99 1014.0
20260902050152 72 124 1.0 1.0 0.00 0.00 0.00 99 1014.2
20260902045647 72 123 1.0 1.0 0.00 0.00 0.00 99 1014.2
20260902045143 72 122 0.0 0.0 0.00 0.00 0.00 99 1014.3
20260902044638 72 124 0.0 0.0 0.00 0.00 0.00 99 1014.3
20260902044134 72 124 0.0 0.0 0.00 0.00 0.00 99 1014.4
20260902043629 73 123 0.0 0.0 0.00 0.00 0.00 99 1014.5
20260902043124 73 123 0.0 0.0 0.00 0.00 0.00 99 1014.2
20260902042623 73 122 0.0 0.0 0.00 0.00 0.00 99 1014.4
20260902042119 73 123 0.0 0.0 0.00 0.00 0.00 99 1014.1
20260902041618 73 122 0.0 0.0 0.00 0.00 0.00 99 1014.0
20260902041113 73 123 0.0 0.0 0.00 0.00 0.00 99 1014.1
20260902040608 73 123 0.0 0.0 0.00 0.00 0.00 99 1014.1
20260902040103 73 124 0.0 0.0 0.00 0.00 0.00 99 1014.0
20260902035601 73 124 0.0 0.0 0.00 0.00 0.00 99 1014.0
20260902035057 73 123 0.0 0.0 0.00 0.00 0.00 99 1014.2
20260902034555 73 125 0.0 0.0 0.00 0.00 0.00 99 1014.0
20260902034054 73 123 0.0 0.0 0.00 0.00 0.00 99 1014.0
20260902033554 74 122 0.0 0.0 0.00 0.00 0.00 99 1014.2
20260902033049 74 122 0.0 0.0 0.00 0.00 0.00 99 1014.3
20260902032547 74 122 0.0 0.0 0.00 0.00 0.00 99 1014.3
20260902032043 74 121 0.0 0.0 0.00 0.00 0.00 99 1013.9
20260902031537 74 121 0.0 0.0 0.00 0.00 0.00 99 1014.3
20260902031034 74 122 0.0 0.0 0.00 0.00 0.00 99 1014.1
20260902030534 74 125 0.0 0.0 0.00 0.00 0.00 99 1014.2
20260902030034 74 122 0.0 0.0 0.00 0.00 0.00 99 1014.2
20260902025529 74 122 0.0 0.0 0.00 0.00 0.00 99 1014.0
20260902025024 74 122 0.0 0.0 0.00 0.00 0.00 99 1014.0
20260902024520 75 122 0.0 0.0 0.00 0.00 0.00 99 1014.1
20260902024020 75 124 0.0 0.0 0.00 0.00 0.00 99 1014.3
20260902023516 75 121 0.0 0.0 0.00 0.00 0.00 99 1014.2
20260902023016 75 120 0.0 0.0 0.00 0.00 0.00 99 1014.3
20260902022510 75 121 0.0 0.0 0.00 0.00 0.00 99 1014.4
20260902022006 75 118 1.0 2.0 0.00 0.00 0.00 99 1014.0
20260902021501 75 125 2.0 2.0 0.00 0.00 0.00 99 1013.9
20260902020956 75 130 2.0 3.0 0.00 0.00 0.00 99 1014.1
20260902020452 75 129 2.0 3.0 0.00 0.00 0.00 99 1014.0
20260902015948 75 127 1.0 2.0 0.00 0.00 0.00 99 1014.0
20260902015443 75 130 1.0 1.0 0.00 0.00 0.00 99 1014.2
20260902014938 76 131 1.0 1.0 0.00 0.00 0.00 99 1014.1
20260902014435 76 128 2.0 2.0 0.00 0.00 0.00 99 1013.9
20260902013934 76 127 2.0 2.0 0.00 0.00 0.00 99 1013.9
20260902013430 76 128 0.0 1.0 0.00 0.00 0.00 98 1013.6
20260902012925 76 123 0.0 0.0 0.00 0.00 0.00 98 1014.1
20260902012420 76 124 1.0 1.0 0.00 0.00 0.00 98 1013.9
20260902011916 76 124 1.0 1.0 0.00 0.00 0.00 98 1013.7
20260902011411 77 123 1.0 1.0 0.00 0.00 0.00 98 1013.8
20260902010910 77 128 0.0 0.0 0.00 0.00 0.00 97 1013.6
20260902010405 77 122 0.0 0.0 0.00 0.00 0.00 97 1013.8
20260902005905 77 124 1.0 1.0 0.00 0.00 0.00 97 1013.4
20260902005359 77 124 1.0 1.0 0.00 0.00 0.00 97 1013.6
20260902004855 77 124 1.0 1.0 0.00 0.00 0.00 96 1013.4
20260902004354 78 128 0.0 0.0 0.00 0.00 0.00 96 1013.3
20260902003849 78 126 0.0 0.0 0.00 0.00 0.00 95 1013.4
20260902003344 78 125 0.0 0.0 0.00 0.00 0.00 95 1013.4
20260902002840 78 124 0.0 0.0 0.00 0.00 0.00 94 1013.3
20260902002339 79 123 0.0 0.0 0.00 0.00 0.00 94 1013.6
20260902001834 79 123 0.0 0.0 0.00 0.00 0.00 93 1013.4
20260902001329 79 123 0.0 0.0 0.00 0.00 0.00 92 1013.4
20260902000824 79 123 1.0 1.0 0.00 0.00 0.00 93 1013.5
20260902000324 80 127 1.0 1.0 0.00 0.00 0.00 92 1013.3
20260901235820 80 125 1.0 2.0 0.00 0.00 0.00 91 1013.2
20260901235319 80 126 1.0 2.0 0.00 0.00 0.00 91 1013.3
20260901234814 80 127 1.0 1.0 0.00 0.00 0.00 89 1013.4
20260901234308 81 127 1.0 1.0 0.00 0.00 0.00 88 1013.3
20260901233804 81 127 1.0 1.0 0.00 0.00 0.00 88 1013.3
20260901233259 82 126 1.0 1.0 0.00 0.00 0.00 86 1013.1
20260901232754 82 126 1.0 1.0 0.00 0.00 0.00 86 1013.1
20260901232243 82 125 1.0 1.0 0.00 0.00 0.00 85 1013.2
20260901231740 83 126 0.0 0.0 0.00 0.00 0.00 84 1013.1
20260901231236 83 125 0.0 0.0 0.00 0.00 0.00 83 1013.0
20260901230731 83 125 0.0 1.0 0.00 0.00 0.00 81 1013.4
20260901230225 84 127 1.0 1.0 0.00 0.00 0.00 80 1013.3
20260901225720 84 127 1.0 1.0 0.00 0.00 0.00 78 1013.1
20260901225214 85 127 1.0 1.0 0.00 0.00 0.00 78 1013.2
20260901224711 86 126 1.0 2.0 0.00 0.00 0.00 76 1013.3
20260901224207 87 126 1.0 1.0 0.00 0.00 0.00 74 1013.3
20260901223702 87 125 3.0 5.0 0.00 0.00 0.00 73 1013.3
20260901223157 88 126 1.0 1.0 0.00 0.00 0.00 73 1013.2
20260901222653 88 125 2.0 2.0 0.00 0.00 0.00 71 1013.3
20260901222149 88 126 1.0 1.0 0.00 0.00 0.00 71 1013.2
20260901221645 90 131 2.0 2.0 0.00 0.00 0.00 71 1013.5
20260901221140 91 131 1.0 1.0 0.00 0.00 0.00 69 1013.3
20260901220639 92 130 1.0 1.0 0.00 0.00 0.00 68 1013.1
20260901220139 94 128 0.0 0.0 0.00 0.00 0.00 66 1013.3
20260901215637 93 127 0.0 0.0 0.00 0.00 0.00 64 1013.3
20260901215132 92 131 1.0 1.0 0.00 0.00 0.00 65 1013.4
20260901214631 92 126 0.0 0.0 0.00 0.00 0.00 67 1013.4
20260901214130 93 125 0.0 0.0 0.00 0.00 0.00 68 1013.6
20260901213625 92 131 0.0 0.0 0.00 0.00 0.00 65 1013.7
20260901213120 91 130 1.0 1.0 0.00 0.00 0.00 68 1013.8
20260901212619 89 132 0.0 0.0 0.00 0.00 0.00 70 1013.4
20260901212116 88 133 0.0 0.0 0.00 0.00 0.00 76 1013.6
20260901211610 88 129 0.0 0.0 0.00 0.00 0.00 77 1013.8
20260901211107 89 132 0.0 0.0 0.00 0.00 0.00 76 1013.8
20260901210602 90 132 0.0 0.0 0.00 0.00 0.00 75 1013.9
20260901210058 88 130 0.0 0.0 0.00 0.00 0.00 77 1013.9
20260901205553 88 130 0.0 0.0 0.00 0.00 0.00 75 1014.2
20260901205047 89 130 1.0 1.0 0.00 0.00 0.00 74 1013.7
20260901204544 88 130 1.0 1.0 0.00 0.00 0.00 74 1013.9
20260901204039 89 129 1.0 1.0 0.00 0.00 0.00 73 1014.2
20260901203539 88 128 0.0 0.0 0.00 0.00 0.00 74 1014.1
20260901203034 88 128 0.0 0.0 0.00 0.00 0.00 72 1014.1
20260901202529 90 128 0.0 0.0 0.00 0.00 0.00 72 1014.0
20260901202025 91 128 0.0 0.0 0.00 0.00 0.00 69 1014.1
20260901201520 92 128 0.0 0.0 0.00 0.00 0.00 68 1014.1
20260901201014 93 129 0.0 0.0 0.00 0.00 0.00 61 1014.3
20260901200509 93 128 0.0 0.0 0.00 0.00 0.00 60 1014.2
20260901200008 92 113 1.0 1.0 0.00 0.00 0.00 60 1014.4
20260901195506 92 118 2.0 2.0 0.00 0.00 0.00 61 1014.3
20260901195006 90 122 0.0 0.0 0.00 0.00 0.00 69 1014.4
20260901194501 91 108 1.0 1.0 0.00 0.00 0.00 65 1014.3
20260901193957 91 127 0.0 0.0 0.00 0.00 0.00 63 1014.5
20260901193456 91 124 1.0 1.0 0.00 0.00 0.00 64 1014.4
20260901192956 92 132 2.0 3.0 0.00 0.00 0.00 63 1014.4
20260901192452 92 122 0.0 0.0 0.00 0.00 0.00 63 1014.4
20260901191948 93 114 0.0 1.0 0.00 0.00 0.00 62 1014.6
20260901191446 93 109 2.0 2.0 0.00 0.00 0.00 61 1014.6
20260901190939 93 117 0.0 0.0 0.00 0.00 0.00 60 1014.6
20260901190434 93 117 5.0 6.0 0.00 0.00 0.00 59 1014.7
20260901185932 93 130 3.0 5.0 0.00 0.00 0.00 61 1014.7
20260901185432 92 112 0.0 1.0 0.00 0.00 0.00 62 1014.8